Location: Vanderbilt Beach
(26.2700°N, 81.7900°W)
Time: 00:32:08
(UTC-05:00)

UWE-3 - Visible Passes

Search period start: 26 November 2020 00:00
Search period end: 06 December 2020 00:00
Orbit: 584 x 683 km, 97.6° (Epoch: 25 November)

Date Brightness Start Highest point End Pass type
(mag) Time Alt. Az. Time Alt. Az. Time Alt. Az.
26 Nov ? 04:10:11 14° ENE 04:11:21 15° E 04:13:48 10° SE visible
26 Nov ? 05:47:40 26° WNW 05:47:41 26° WNW 05:51:07 10° SW visible
27 Nov ? 04:32:27 28° E 04:32:53 29° E 04:36:30 10° SSE visible
27 Nov ? 06:09:56 13° W 06:09:56 13° W 06:11:07 10° WSW visible
28 Nov ? 04:54:35 57° ESE 04:54:35 57° ESE 04:58:27 10° S visible
29 Nov ? 05:16:38 53° SW 05:16:38 53° SW 05:19:56 10° SSW visible
30 Nov ? 04:01:10 11° E 04:01:10 11° E 04:02:05 10° ESE visible
30 Nov ? 05:38:38 26° WSW 05:38:38 26° WSW 05:40:58 10° SW visible
01 Dec ? 04:23:08 21° ESE 04:23:08 21° ESE 04:25:33 10° SSE visible
01 Dec ? 06:00:36 13° WSW 06:00:36 13° WSW 06:01:25 10° WSW visible
02 Dec ? 04:45:04 32° SE 04:45:04 32° SE 04:47:46 10° S visible
03 Dec ? 05:06:58 35° S 05:06:58 35° S 05:09:27 10° S visible
04 Dec ? 05:28:52 24° SW 05:28:52 24° SW 05:30:42 10° SSW visible
05 Dec ? 04:13:17 14° ESE 04:13:17 14° ESE 04:14:24 10° SE visible
05 Dec ? 05:50:44 14° WSW 05:50:44 14° WSW 05:51:27 10° SW visible
